CZ-3B R/B, 45808

Orbit data source: Space-Track

CZ-3B R/B, 45808 is space debris in HEO originally from a launch on Tue, 23 Jun 2020 UTC launched from the Xichang Space Center, China (XSC). Debris objects in space refer to the collection of defunct objects orbiting the Earth. Examples of debris include non-operational satellites, rocket bodies, and fragments generated from explosions, collisions, or faulty payload assembly.

Loading next visibility...
Identifier
45808, 2020-040B
Orbit
HEO
Last TLE update
1 day ago
Origin
Manufacturer
CALT
Mission
Spacecraft
Bus & Motor
CZ-3A STAGE 3, Unknown motor
Mass
~2,800 kg wet, ~2,800 kg dry
Launch date (UTC)
2020-06-23 (5 years ago)
Launch vehicle
Unknown
Launch site
Xichang Space Center, China (XSC)
Object type
Payload
Rocket body
Debris
Shape & HBR
Cyl + 1 Nozzle, 12.38 m
Radar Cross Section
32.704 m², Large (>1 m²)

Expand to show TLE details & history

TLE from 1 day ago
0 CZ-3B R/B
1 45808U 20040B   25128.30745493  .00045302 -32751-7  17957-2 0  9995
2 45808  28.0393 203.1156 6714482  61.4381 349.4051  3.07097048 48102
Epoch: 2025-05-08T07:22Z
Definitive object data (Epoch: 2025-05-08T07:22:44.105Z)
Latitude
-0.00003°
Longitude
-133.8823°
Altitude
1,920.073 km
Speed
8.725 km/s
True Right ascension
13h 32m 43s
True Declination
0° 00' 00"
Sunlit
Object was in full shadow at TLE epoch
Visualization TLE readout
Latitude
-20.10986°
Longitude
88.8498°
Altitude
24,746.703 km
Speed
2.382 km/s
Apparent Right ascension
04h 36m 29s
Apparent Declination
-23° 35' 13"
Sunlit
Object is in daylight
Visualization observer readout
Local Sidereal Time
17:54:29
Azimuth
51.04° ENE
Elevation
-66.829°
Doppler factor
1
Orbital elements
Apogee altitude
27,045.719 km
Perigee altitude
191.895 km
Semi-major axis
19,996.944 km
Eccentricity
0.6714482
Inclination
28.0393°
RAAN
203.1156°
Arg. of periapsis
61.4381°
True anomaly
298.42702°
Mean anomaly
349.4051°
Eccentric anomaly
330.40622°
Mean motion
0.76753 °/min
BSTAR
0.0017957
Orbital period
469.03 mins
Loading maneuver chart data...
Loading SW <> Apogee altitude chart data...
Loading historical data...
Loading historical data...
Loading historical data...
Loading historical data...
Loading historical data...
Loading historical data...
Loading historical data...
Other satellites on launch #40 in the year 2020 (2020-06-23 UTC)

CZ-3B R/B Visibility forecast

Observer location: undefined°, undefined°

Span
Click to sort rows by Start time (UTC) header in descending order
Start Az.
Max El. time (UTC)
Max El. Az.
Max El.
End time (UTC)
End Az.
102 mins2025-05-09 15:04:06.955Z238.735° WSW2025-05-09 15:13:06.955Z180.46° SSW29.397°2025-05-09 16:46:06.955Z138.084° SSE
|